Regional Weather Roundup
Issued by NWS Sioux Falls, SD

Home | Current Version | Previous Version | Graphics & Text | Print | Product List | Glossary Off
Versions: 1 2 3 4 5 6 7 8 9 10 11 12 13 14 15 16 17 18 19 20 21 22 23 24 25 26 27 28 29 30 31 32 33 34 35 36 37 38 39 40 41 42 43 44 45 46 47 48 49 50

000
ASUS43 KFSD 020502
RWRFSD

WEATHER ROUNDUP FOR SE SOUTH DAKOTA/SW MINNESOTA/NW IOWA
NATIONAL WEATHER SERVICE SIOUX FALLS SD
1200 AM CDT TUE SEP 02 2014

NOTE: "FAIR" INDICATES FEW OR NO CLOUDS BELOW 12,000 FEET WITH NO
SIGNIFICANT WEATHER AND OR OBSTRUCTIONS TO VISIBILITY.


SDZ038>040-050-052>070-020600-
SOUTHEAST SOUTH DAKOTA

CITY           SKY/WX    TMP DP  RH WIND       PRES   REMARKS
CHAMBERLAIN    CLOUDY    58  56  91 CALM      29.93R
HURON          CLOUDY    60  55  83 SW8       29.87S
MADISON        LGT RAIN  59  57  94 W9        29.91R
MITCHELL       CLOUDY    61  57  87 SW5       29.90R
SIOUX FALLS    CLOUDY    63  54  72 W10       29.89S
WINNER         MOCLDY    58  53  84 SW7       29.96R
YANKTON        CLOUDY    61  55  82 W12       29.90R
$$

MNZ071-072-080-081-089-090-097-098-020600-
SOUTHWEST MINNESOTA

CITY           SKY/WX    TMP DP  RH WIND       PRES   REMARKS
FAIRMONT       CLEAR     61  54  77 CALM      29.86S
JACKSON        CLEAR     59  55  88 CALM      29.87F
LUVERNE        CLOUDY    61  55  82 NW7       29.89R
MARSHALL       CLOUDY    63  52  67 W7        29.85R
MONTEVIDEO     CLOUDY    63  55  77 NW3       29.85R
PIPESTONE      CLOUDY    61  54  77 W6        29.90R
REDWOOD FALLS  MOCLDY    64  57  78 W6        29.83S
TRACY          CLOUDY    64  56  75 NW7       29.87R
WINDOM         PTCLDY    59  55  88 W5        29.86F
WORTHINGTON    MOCLDY    61  55  82 W7        29.89S
$$

IAZ001>003-012>014-020>022-031-032-NEZ013-014-SDZ071-020600-
NORTHWEST IOWA

CITY           SKY/WX    TMP DP  RH WIND       PRES   REMARKS
CHEROKEE       MOCLDY    60  60 100 S3        29.89R
DENISON        PTCLDY    63  63 100 CALM      29.90R
ESTHERVILLE    CLEAR     58  56  93 NW6       29.86S
LE MARS          N/A     63  59  88 W18G26    29.92R
ORANGE CITY    CLOUDY    66  59  77 CALM      29.89R
SHELDON        CLOUDY    57  57 100 CALM      29.87R
SIOUX CITY     TSTM      61  58  90 NW20G30     N/A
SPENCER        PTCLDY    59  56  89 W3        29.88R
STORM LAKE     PTCLDY    63  63 100 SW5       29.89R
$$

ABBREVIATIONS USED IN REMARKS
   TC - TEMPERATURE IN CELSIUS
  WCI - WIND CHILL INDEX
   HX - HEAT INDEX
  VSB - VISIBILITY



USA.gov is the U.S. government's official web portal to all federal, state and local government web resources and services.